TimeEST,TemperatureF,Dew PointF,Humidity,Sea Level PressureIn,VisibilityMPH,Wind Direction,Wind SpeedMPH,Gust SpeedMPH,PrecipitationIn,Events,Conditions,WindDirDegrees,DateUTC
12:52 AM,28.9,3.9,35,30.10,10.0,Calm,Calm,-,N/A,,Clear,0,2014-01-31 05:52:00
1:52 AM,30.9,1.9,29,30.09,10.0,West,4.6,-,N/A,,Clear,260,2014-01-31 06:52:00
2:52 AM,30.9,1.9,29,30.09,10.0,WSW,8.1,-,N/A,,Clear,250,2014-01-31 07:52:00
3:52 AM,30.0,1.9,30,30.11,10.0,WSW,4.6,-,N/A,,Clear,250,2014-01-31 08:52:00
4:52 AM,30.9,3.0,31,30.10,10.0,WSW,8.1,-,N/A,,Clear,250,2014-01-31 09:52:00
5:52 AM,30.9,1.9,29,30.13,10.0,WSW,5.8,-,N/A,,Clear,250,2014-01-31 10:52:00
6:52 AM,32.0,1.0,27,30.14,10.0,WSW,4.6,-,N/A,,Clear,250,2014-01-31 11:52:00
7:52 AM,30.9,-0.0,27,30.15,10.0,West,4.6,-,N/A,,Clear,270,2014-01-31 12:52:00
8:52 AM,33.1,1.9,27,30.17,10.0,WSW,5.8,-,N/A,,Clear,250,2014-01-31 13:52:00
9:52 AM,36.0,6.1,29,30.17,10.0,WSW,8.1,-,N/A,,Clear,250,2014-01-31 14:52:00
10:52 AM,39.0,3.0,22,30.18,10.0,West,11.5,17.3,N/A,,Clear,280,2014-01-31 15:52:00
11:52 AM,42.1,1.9,19,30.16,10.0,WSW,10.4,-,N/A,,Clear,250,2014-01-31 16:52:00
12:52 PM,45.0,5.0,19,30.11,10.0,WSW,9.2,-,N/A,,Clear,240,2014-01-31 17:52:00
1:52 PM,45.0,8.1,22,30.11,10.0,West,11.5,-,N/A,,Clear,260,2014-01-31 18:52:00
2:52 PM,45.0,8.1,22,30.11,10.0,West,12.7,-,N/A,,Clear,260,2014-01-31 19:52:00
3:52 PM,45.0,8.1,22,30.12,10.0,West,6.9,-,N/A,,Clear,260,2014-01-31 20:52:00
4:52 PM,44.1,8.1,23,30.14,10.0,West,8.1,-,N/A,,Clear,260,2014-01-31 21:52:00
5:52 PM,42.1,10.9,28,30.16,10.0,West,3.5,-,N/A,,Clear,270,2014-01-31 22:52:00
6:52 PM,39.9,12.0,32,30.17,10.0,SW,4.6,-,N/A,,Clear,230,2014-01-31 23:52:00
7:52 PM,37.9,18.0,45,30.17,10.0,SW,5.8,-,N/A,,Clear,230,2014-02-01 00:52:00
8:52 PM,37.0,19.9,50,30.17,10.0,WSW,4.6,-,N/A,,Clear,250,2014-02-01 01:52:00
9:52 PM,37.9,21.9,53,30.17,10.0,SW,5.8,-,N/A,,Clear,230,2014-02-01 02:52:00
10:52 PM,39.9,26.1,58,30.14,10.0,Calm,Calm,-,N/A,,Clear,0,2014-02-01 03:52:00
11:52 PM,37.9,25.0,60,30.13,10.0,Calm,Calm,-,N/A,,Clear,0,2014-02-01 04:52:00